Regional Weather Roundup
Issued by NWS Charleston, SC

Current Version | Previous Version | Graphics & Text | Print | Product List | Glossary On
Versions: 1 2 3 4 5 6 7 8 9 10 11 12 13 14 15 16 17 18 19 20 21 22 23 24 25 26 27 28 29 30 31 32 33 34 35 36 37 38 39 40 41 42 43 44 45 46 47 48 49 50
000
ASUS42 KCHS 200212
RWRCHS

Regional Weather Roundup
National Weather Service Charleston SC
1000 PM EDT SAT MAY 19 2018

NOTE: "fair" indicates few or no clouds below 12,000 feet with no
significant weather and/or obstructions to visibility.

Not all stations are quality controlled. Use data with caution,
especially dewpoint observations.

SCZ027-030-031-034>040-042>050-200300-
...Southeast South Carolina...

CITY           SKY/WX    TMP DP  RH WIND       PRES   REMARKS
N Charleston   CLOUDY    74  71  91 S10       30.10R
Waterfront Prk   N/A     74  73  96 S9        29.94S
Mount Pleasant FAIR      73  72  94 S8        30.10S
Johns Island   FAIR      73  72  94 S9        30.10S
Pinopolis        N/A     73  72  94 VRB2      30.01S
Moncks Corner  CLOUDY    72  70  94 S3        30.10R
Summerville    CLOUDY    73  70  88 S3        30.11R
Beaufort MCAS  CLOUDY    76  73  91 S5        30.10R
Beaufort Arpt  MOCLDY    73  70  88 S9        30.09R
Hilton Head Is   N/A    N/A N/A N/A S8        30.11R
Walterboro     CLOUDY    72  70  94 CALM      30.11R
Allendale      MOCLDY    75  70  83 SE9       30.08R

...Southern Midlands and Pee Dee...

CITY           SKY/WX    TMP DP  RH WIND       PRES   REMARKS
Georgetown     FAIR      68  68 100 S6        30.12S
Kingstree      FAIR      72  70  94 SE3       30.10S
Orangeburg     CLOUDY    74  69  85 S5        30.10R
Barnwell       CLOUDY    73  70  88 SE5       30.09R
Aiken          FAIR      73  68  83 SE9       30.12R
Manning        MOCLDY    70  66  88 S3        30.10R
Columbia       FAIR      76  72  87 SE10      30.08R
Sumter         MOCLDY    74  69  83 S7        30.08R
Florence       FAIR      73  70  90 S6        30.10S
Myrtle Beach   FAIR      72  70  94 S10       30.13S
N Myrtle Beach LGT RAIN  73  71  93 S8        30.11F

$$

GAZ063-065-086>088-099>101-113>116-118-119-134>141-150-200300-
...Southeast Georgia...

CITY           SKY/WX    TMP DP  RH WIND       PRES   REMARKS
Savannah Arpt  MOCLDY    76  71  85 S6        30.09R
Hunter AAF     MOCLDY    76  71  86 S3        30.07R
Fort Stewart   MOCLDY    75  72  88 SE5       30.06S
Statesboro     FAIR      73  70  89 SE3       30.09R
Sylvania       FAIR      74  72  94 S3        30.10R
Claxton        FAIR      75  72  89 CALM      30.09R

...CSRA, Central and far Southeast Georgia...

CITY           SKY/WX    TMP DP  RH WIND       PRES   REMARKS
Thomson        FAIR      72  70  94 CALM      30.13R
Augusta-Bush   LGT RAIN  76  70  82 SE8       30.09R
Augusta-Daniel HVY RAIN  74  73  97 SE10      30.10R FOG
Swainsboro     MOCLDY    73  72  94 S6        30.09S
Vidalia        CLOUDY    75  68  78 E3        30.09F
Eastman        MOCLDY    73  65  75 CALM      30.10R
Hazlehurst       N/A     78  69  73 SE3       30.08R
Alma           LGT RAIN  76  70  82 E3        30.08R
Waycross       FAIR      76  73  90 SE3       30.08R
Jesup          FAIR      75  70  83 CALM      30.08
Baxley         FAIR      73  73 100 SE5       30.08R
Brunswick      FAIR      75  70  83 S8        30.09R
Saint Simons   MOCLDY    76  73  91 S12G20    30.08R

$$

SCZ027-028-034-036>038-045-046-048>050-GAZ119-141-200300-
...Lake and Supplemental Coastal Observations...

STATION/POSITION TIME  TEMP    WIND        PRES    WAVE   SWELL
                       AIR SEA DIR/SP/G            HT/PER HT/PER/DIR
                 (UTC) (F)     (DEG/KT/KT) (MB)    (FT/S) (FT/S/D)
Winyah Bay       0045   73     190/  7     1020.0
Lake Murray      0120   78     130/  8/ 13 1017.6
ACE Basin NERRS  0045   75     140/  3     1019.0
Fort Pulaski     0142   75 78  170/  6/  8 1019.2R
Sapelo Island    0100   76     180/ 11     1018.0

$$

ANZ835-935-AMZ111-154-330-350-352-354-370-450-454-472-200300-
...C-MAN and Buoy Observations...

STATION/POSITION TIME  TEMP    WIND        PRES    WAVE   SWELL
                       AIR SEA DIR/SP/G            HT/PER HT/PER/DIR
                 (UTC) (F)     (DEG/KT/KT) (MB)    (FT/S) (FT/S/D)
Buoy 41004       0150      74  180/ 10/ 14 1019.4S   8/ 8   7/140/ 8
Buoy 41008       0150   75 75  160/ 16/ 19 1018.1R   5/ 8   3/100/ 8
Folly Beach CMAN 0100   74     160/ 14/ 16 1019.8R
Capers Nearshore 0108   75 75  210/ 16/ 21 1019.7R
Fripp Nearshore  0108   74 77  170/ 14/ 21 1018.4R


STATION/POSITION TIME  TEMP    WIND        PRES    WAVE   SWELL
                       AIR SEA DIR/SP/G            HT/PER HT/PER/DIR
                 (UTC) (F)     (DEG/KT/KT) (MB)    (FT/S) (FT/S/D)
5E St. Marys GA  0200      75                N/A     4/ 8
Frying Pan Buoy  0150   77 75  160/ 17/ 23 1020.2F   7/ 8   3/150/ 8
Buoy 41025       0150   77 75  180/ 19/ 23 1022.1F   6/ 7   3/120/15
Cape Lookout NC  0100          170/ 18/ 20 1021.2F
Buoy 41002       0150      76  140/ 16/ 19 1023.8R   6/ 8   3/140/ 8
Buoy 41010       0150   78 79  130/ 17/ 21 1020.7R   7/ 8   2/130/15
St Augustine FL  0200   75 77  170/ 17/ 19 1019.3R


$$




USA.gov is the U.S. government's official web portal to all federal, state and local government web resources and services.